Location: Kalberh�ni
(46.4610°N, 7.2453°E)
Time: 13:25:08
(UTC+00:00)

N. Korean satellite - Visible Passes

Search period start: 24 September 2021 00:00
Search period end: 04 October 2021 00:00
Orbit: 448 x 498 km, 97.3° (Epoch: 23 September)

Date Brightness Start Highest point End Pass type
(mag) Time Alt. Az. Time Alt. Az. Time Alt. Az.
24 Sep 9.6 04:01:01 10° NE 04:03:36 19° E 04:06:11 10° SE visible
26 Sep 7.5 04:37:55 10° NNE 04:41:25 52° E 04:44:56 10° S visible
27 Sep 9.1 04:10:32 10° NE 04:13:31 24° E 04:16:30 10° SSE visible
28 Sep 10.0 03:44:01 10° ENE 03:45:30 12° E 03:46:58 10° ESE visible
29 Sep 6.9 04:47:38 10° NNE 04:51:14 71° ESE 04:54:50 10° S visible
30 Sep 8.6 04:20:05 10° NNE 04:23:21 32° E 04:26:36 10° SSE visible
01 Oct 9.8 03:53:04 10° NE 03:55:20 16° E 03:57:36 10° SE visible
02 Oct 6.6 04:57:20 10° NNE 05:00:57 86° WNW 05:04:34 10° SSW visible
03 Oct 8.0 04:29:36 10° NNE 04:33:03 42° E 04:36:32 10° S visible
